{"data":{"norad_id":67309,"epoch":"2026-05-25T00:32:19.411296Z","epoch_age_seconds":70512,"freshness":"FRESH","line1":"1 67309U 26002E   26145.02244689  .00016393  00000+0  60364-3 0  9991","line2":"2 67309  43.0011 254.1281 0002983 265.8065  94.2446 15.27592645 22754","mean_motion":15.27592645,"eccentricity":0.0002983,"inclination_deg":43.0011,"raan_deg":254.1281,"arg_perigee_deg":265.8065,"mean_anomaly_deg":94.2446,"bstar":0.00060364,"rev_number":2275,"period_min":94.265968398925,"perigee_km":480.96455210403,"apogee_km":485.05791313962,"semimajor_km":6861.1482326218,"source":"CELESTRAK","updated_at":"2026-05-25T13:38:21.515313Z"}}